Flag for Mexico Weather past 2 weeks in Colima, Colima, Mexico

Now
68 °F

Broken clouds.


Feels Like: 68 °F
Forecast: 60 / 84 °F
Wind: 5 mph from Southwest

Location: Don Miguel / Guadalaj

Current Time: Jan 31, 2015 at 12:36:56 PM

Latest Report: Jan 31, 2015 at 11:50 AM


Visibility: 12 mi

Pressure: 29.89 "Hg

Humidity: 43%

Dew point: 45 °F

Location of ColimaLocation

Historic Weather in Colima — Graph

°F

Colima temperature yesterday

Maximum temperature yesterday: 77 °F (at 4:49 PM)
Minimum temperature yesterday: 46 °F (at 5:50 AM)
Average temperature yesterday: 62 °F

Past Weeks' High & Low Weather Summary

 TemperatureHumidityPressure
High82 °F (Jan 27, 2:54 PM)93% (Jan 23, 6:51 AM)30.35 "Hg (Jan 23, 6:51 AM)
Low43 °F (Jan 20, 6:51 AM)14% (Jan 20, 4:53 PM)29.74 "Hg (Jan 21, 2:49 PM)
Average63 °F51%30.11 "Hg
* Reported Jan 16 10:52 AM — Jan 31 10:53 AM, Colima, Weather by CustomWeather, © 2014

Note: Actual official high and low records may vary slightly from our data, if they occured in-between our weather recording intervals... More about our weather records

Advertising

Colima weather history for previous 24 hours

 ConditionsComfort  
Time TempWeatherWind HumidityBarometerVisibility
10:53 AM
Jan 31
66 °FScattered clouds.6 mph49%30.19 "Hg12 mi
9:46 AM63 °FScattered clouds.5 mph68%30.20 "Hg8 mi
8:54 AM57 °FScattered clouds.No wind82%29.96 "Hg8 mi
7:56 AM54 °FBroken clouds.No wind88%30.14 "Hg8 mi
6:47 AM55 °FPassing clouds.6 mph82%30.12 "Hg10 mi
5:51 AM55 °FPassing clouds.No wind88%29.86 "Hg10 mi
3:45 AM61 °FPassing clouds.No wind77%30.14 "Hg10 mi
2:45 AM57 °FPassing clouds.No wind82%29.82 "Hg10 mi
1:45 AM59 °FPassing clouds.3 mph77%30.14 "Hg10 mi
12:45 AM59 °FPassing clouds.No wind68%30.15 "Hg10 mi
10:49 PM
Jan 30
61 °FPassing clouds.6 mph48%30.16 "Hg10 mi
9:45 PM63 °FPartly cloudy.No wind45%30.14 "Hg10 mi
8:49 PM64 °FPartly cloudy.5 mph34%29.90 "Hg10 mi
7:49 PM68 °FPassing clouds.No wind33%30.11 "Hg10 mi
6:54 PM68 °FMostly cloudy.7 mph30%30.08 "Hg10 mi
4:49 PM77 °FScattered clouds.7 mph22%30.08 "Hg10 mi
3:58 PM75 °FScattered clouds.14 mph21%30.09 "Hg10 mi
2:55 PM75 °FPartly sunny.No wind15%29.84 "Hg10 mi
1:52 PM73 °FPartly sunny.5 mph17%30.16 "Hg10 mi
12:53 PM70 °FPartly sunny.9 mph21%30.20 "Hg10 mi
Weather by CustomWeather, © 2014

See weather overviewHow to use our weather pages